Regional Weather Roundup
Issued by NWS

Home | Current Version | Previous Version | Graphics & Text | Print | Product List | Glossary On
Versions: 1 2 3 4 5 6 7 8 9 10 11 12 13 14 15 16 17 18 19 20 21 22 23 24 25 26 27 28 29 30 31 32 33 34 35 36 37 38 39 40 41 42 43 44 45 46 47 48 49 50
000
ASUS45 KABQ 200901
RWRNM
NEW MEXICO REGIONAL WEATHER ROUNDUP
NATIONAL WEATHER SERVICE ALBUQUERQUE NM
200 AM MST FRI JAN 20 2017

NOTE: "FAIR" MEANS FEW OR NO CLOUDS BELOW 12,000 FEET AGL WITH NO
       SIGNIFICANT WEATHER OR OBSTRUCTIONS TO VISION.

      THIS PRODUCT IS RELEASED AS TWO VERSIONS.  ONE VERSION NEAR
      THE TOP OF THE HOUR CONTAINING PRELIMINARY DATA FROM ALBUQUERQUE
      AND OTHER STATIONS.  A FINAL VERSION WITH ADDITIONAL DATA IS
      ISSUED ABOUT 10 MINUTES AFTER THE HOUR.

NMZ501-503-504-510>518-201000-
NORTHWEST PLATEAU/NORTHCENTRAL MOUNTAINS

CITY           SKY/WX    TMP DP  RH WIND       PRES   REMARKS
FARMINGTON     MOCLDY    32  29  88 W15       29.68R WCI  22
LOS ALAMOS     CLOUDY    32  22  65 SE9       29.70F WCI  25
SANTA FE       FAIR      32  28  85 W13       29.70S WCI  22
TAOS           MOCLDY    28  21  74 SW8       29.68S WCI  20
ANGEL FIRE     CLOUDY    28  23  83 W20G29    29.61F WCI  14

$$
NMZ402-403-502-505>509-201000-
WESTCENTRAL MOUNTAINS/SOUTHWEST MOUNTAINS

CITY           SKY/WX    TMP DP  RH WIND       PRES   REMARKS
GALLUP         LGT SNOW  32  28  85 SW20G26   29.74R FOG     WCI  20
GRANTS         CLOUDY    32  28  86 W5        29.76R WCI  27
SILVER CITY    CLOUDY    38  32  79 NW7       29.84F WCI  33

$$
NMZ407-409-411-412-201000-
SOUTHERN DESERTS

CITY           SKY/WX    TMP DP  RH WIND       PRES   REMARKS
DEMING         FAIR      36  34  92 W7        29.84F WCI  30
LAS CRUCES     FAIR      37  32  83 SW5       29.84F WCI  33
ALAMOGORDO     CLOUDY    45  34  65 S3        29.84R
T OR C         CLOUDY    43  32  65 S12       29.77S

$$
NMZ519>523-201000-
CENTRAL VALLEYS/CENTRAL HIGHLANDS

CITY           SKY/WX    TMP DP  RH WIND       PRES   REMARKS
ALBUQUERQUE    FAIR      40  28  62 W10G23    29.75S WCI  33
DOUBLE EAGLE   FAIR      35  28  78 SW18G24   29.73F WCI  24
MORIARTY ARPT  FAIR      33  25  71 S7        29.73S WCI  27
CLINES CORNERS CLOUDY    30  26  85 W12       29.71R WCI  20
BELEN          CLOUDY    35  31  87 S6        29.76S WCI  30
SOCORRO        FAIR      38  32  79 SW6       29.77S WCI  33

$$
NMZ524>526-539-540-201000-
SOUTHCENTRAL MOUNTAINS

CITY           SKY/WX    TMP DP  RH WIND       PRES   REMARKS
RUIDOSO        MIX PCPN  36  28  75 SW17G24   29.79S WCI  25

$$
NMZ527>531-201000-
NORTHEAST HIGHLANDS/NORTHEAST PLAINS

CITY           SKY/WX    TMP DP  RH WIND       PRES   REMARKS
LAS VEGAS      FAIR      33  20  58 SE8       29.58R WCI  26
RATON          MOCLDY    40  21  46 S6        29.49F
CLAYTON        LGT RAIN  48  33  56 NW13G25   29.48S

$$
NMZ532>537-201000-
EASTCENTRAL PLAINS

CITY           SKY/WX    TMP DP  RH WIND       PRES   REMARKS
TUCUMCARI      FAIR      46  31  55 W28G37    29.54R
CANNON AFB     FAIR      43  33  68 W18       29.63R
CLOVIS AIRPORT FAIR      45  30  57 W30G36    29.60F

$$
NMZ028-029-538-201000-
SOUTHEAST PLAINS

CITY           SKY/WX    TMP DP  RH WIND       PRES   REMARKS
ROSWELL        FAIR      46  31  55 SW10      29.70R
ARTESIA        FAIR      48  34  57 W29G35    29.69F
CARLSBAD       FAIR      52  32  46 W10       29.74S


$$




USA.gov is the U.S. government's official web portal to all federal, state and local government web resources and services.